QPF
0.05 0.05 0.03 0.02 0.02 0.01 0.01 0.01 0.01 0.00 0.00 0.00 0.00 0.00 0.00 0.00 0.00 0.00 0.00 0.00 0.00 0.00 0.01 0.01 0.02 0.03 0.04 0.03 0.03 0.02 0.02 0.03 0.02 0.02 0.02 0.02 0.01 0.01 0.01 0.02 0.02 0.03 0.03
0.05 0.08 0.07 0.05 0.02 0.01 0.01 0.01 0.01 0.01 0.00 0.00 0.00 0.00 0.00 0.00 0.00 0.00 0.00 0.00 0.00 0.00 0.01 0.02 0.02 0.03 0.03 0.03 0.02 0.01 0.01 0.01 0.01 0.02 0.02 0.02 0.02 0.02 0.02 0.02 0.02 0.01 0.02
0.05 0.07 0.07 0.07 0.06 0.03 0.01 0.01 0.02 0.01 0.01 0.00 0.00 0.00 0.00 0.00 0.00 0.00 0.00 0.00 0.00 0.00 0.00 0.01 0.01 0.01 0.01 0.01 0.01 0.01 0.01 0.01 0.01 0.01 0.02 0.02 0.02 0.01 0.01 0.01 0.01 0.01 0.01
0.08 0.06 0.06 0.04 0.05 0.04 0.02 0.01 0.02 0.02 0.01 0.01 0.00 0.00 0.00 0.00 0.00 0.00 0.00 0.00 0.00 0.00 0.00 0.00 0.00 0.00 0.00 0.01 0.01 0.01 0.01 0.00 0.00 0.00 0.01 0.01 0.01 0.01 0.01 0.01 0.01 0.01 0.01
0.13 0.08 0.07 0.05 0.04 0.04 0.03 0.02 0.01 0.02 0.02 0.01 0.01 0.00 0.00 0.00 0.00 0.00 0.00 0.00 0.00 0.00 0.00 0.00 0.00 0.00 0.00 0.00 0.01 0.01 0.00 0.00 0.00 0.00 0.00 0.00 0.00 0.00 0.01 0.01 0.01 0.01 0.01
0.17 0.11 0.07 0.07 0.06 0.05 0.04 0.02 0.01 0.02 0.02 0.02 0.01 0.01 0.00 0.00 0.00 0.00 0.00 0.00 0.00 0.00 0.00 0.00 0.00 0.00 0.00 0.00 0.00 0.00 0.00 0.00 0.00 0.00 0.00 0.00 0.00 0.00 0.00 0.00 0.01 0.01 0.01
0.17 0.18 0.10 0.06 0.07 0.07 0.06 0.04 0.02 0.02 0.02 0.02 0.02 0.02 0.01 0.00 0.00 0.00 0.00 0.00 0.00 0.00 0.00 0.00 0.00 0.00 0.00 0.00 0.00 0.00 0.00 0.00 0.00 0.00 0.00 0.00 0.00 0.00 0.00 0.01 0.01 0.01 0.01
0.19 0.19 0.16 0.10 0.07 0.08 0.09 0.07 0.04 0.03 0.03 0.04 0.03 0.02 0.02 0.01 0.01 0.00 0.00 0.00 0.00 0.00 0.00 0.00 0.00 0.00 0.00 0.00 0.00 0.00 0.00 0.00 0.00 0.00 0.00 0.00 0.00 0.00 0.00 0.00 0.01 0.01 0.01
0.17 0.20 0.19 0.15 0.10 0.06 0.08 0.09 0.05 0.03 0.02 0.03 0.05 0.04 0.02 0.01 0.00 0.00 0.00 0.00 0.00 0.00 0.00 0.00 0.00 0.00 0.00 0.00 0.00 0.00 0.00 0.00 0.00 0.00 0.00 0.00 0.00 0.00 0.00 0.00 0.01 0.01 0.01
0.14 0.16 0.17 0.17 0.14 0.08 0.06 0.06 0.06 0.03 0.02 0.01 0.03 0.05 0.03 0.01 0.00 0.00 0.00 0.00 0.00 0.00 0.00 0.00 0.00 0.00 0.00 0.00 0.00 0.00 0.00 0.00 0.00 0.00 0.00 0.00 0.00 0.00 0.01 0.01 0.01 0.01 0.01
0.10 0.11 0.12 0.14 0.14 0.10 0.07 0.06 0.06 0.05 0.04 0.02 0.02 0.03 0.04 0.02 0.01 0.01 0.01 0.01 0.00 0.00 0.00 0.00 0.00 0.00 0.00 0.00 0.00 0.00 0.00 0.00 0.00 0.00 0.00 0.00 0.00 0.00 0.01 0.01 0.01 0.01 0.01
0.07 0.07 0.08 0.09 0.10 0.11 0.08 0.05 0.04 0.05 0.06 0.04 0.03 0.02 0.04 0.04 0.02 0.01 0.01 0.01 0.01 0.00 0.00 0.00 0.00 0.00 0.00 0.00 0.00 0.00 0.00 0.00 0.00 0.00 0.00 0.00 0.00 0.00 0.00 0.01 0.01 0.01 0.01
0.04 0.05 0.05 0.06 0.06 0.07 0.08 0.05 0.04 0.04 0.05 0.05 0.04 0.03 0.03 0.04 0.04 0.03 0.02 0.01 0.01 0.01 0.01 0.01 0.00 0.00 0.00 0.00 0.00 0.00 0.00 0.00 0.00 0.00 0.00 0.00 0.00 0.00 0.00 0.00 0.01 0.01 0.01
0.04 0.04 0.04 0.04 0.05 0.04 0.05 0.05 0.04 0.03 0.03 0.03 0.03 0.04 0.04 0.04 0.05 0.05 0.04 0.03 0.02 0.01 0.01 0.01 0.01 0.00 0.00 0.00 0.00 0.00 0.00 0.00 0.00 0.00 0.00 0.00 0.00 0.00 0.00 0.00 0.00 0.00 0.00
0.04 0.05 0.05 0.05 0.06 0.06 0.05 0.04 0.04 0.03 0.03 0.02 0.02 0.02 0.03 0.03 0.04 0.05 0.04 0.02 0.01 0.01 0.01 0.00 0.00 0.00 0.00 0.00 0.00 0.00 0.00 0.00 0.00 0.00 0.00 0.00 0.00 0.00 0.00 0.00 0.00 0.00 0.00
0.03 0.03 0.04 0.05 0.06 0.07 0.05 0.04 0.03 0.02 0.02 0.02 0.01 0.01 0.01 0.01 0.03 0.04 0.04 0.03 0.01 0.01 0.01 0.00 0.00 0.00 0.00 0.00 0.00 0.00 0.00 0.00 0.00 0.00 0.00 0.00 0.00 0.00 0.00 0.00 0.00 0.00 0.00
0.01 0.01 0.01 0.02 0.03 0.04 0.04 0.03 0.03 0.02 0.02 0.02 0.02 0.01 0.01 0.01 0.02 0.03 0.04 0.04 0.02 0.01 0.01 0.00 0.00 0.00 0.00 0.00 0.00 0.00 0.00 0.00 0.00 0.00 0.00 0.00 0.00 0.00 0.00 0.00 0.00 0.00 0.00
0.01 0.01 0.01 0.01 0.01 0.01 0.02 0.02 0.02 0.02 0.01 0.01 0.01 0.01 0.01 0.01 0.01 0.02 0.03 0.04 0.03 0.02 0.01 0.00 0.00 0.00 0.00 0.00 0.00 0.00 0.00 0.00 0.00 0.00 0.00 0.00 0.00 0.00 0.00 0.00 0.00 0.00 0.01
0.00 0.00 0.00 0.00 0.00 0.00 0.00 0.01 0.01 0.01 0.01 0.01 0.01 0.01 0.01 0.01 0.01 0.01 0.02 0.03 0.03 0.03 0.02 0.01 0.01 0.00 0.00 0.00 0.00 0.00 0.00 0.00 0.00 0.00 0.00 0.00 0.00 0.00 0.00 0.00 0.00 0.01 0.00
0.00 0.00 0.00 0.00 0.00 0.00 0.00 0.00 0.01 0.01 0.01 0.01 0.01 0.01 0.01 0.01 0.01 0.01 0.01 0.02 0.03 0.03 0.03 0.03 0.02 0.01 0.00 0.00 0.00 0.00 0.00 0.00 0.00 0.00 0.00 0.00 0.00 0.00 0.00 0.00 0.00 0.00 0.00
0.00 0.00 0.00 0.00 0.00 0.00 0.00 0.00 0.01 0.01 0.01 0.01 0.01 0.01 0.01 0.01 0.01 0.01 0.01 0.01 0.02 0.03 0.03 0.04 0.04 0.02 0.01 0.00 0.00 0.00 0.00 0.00 0.00 0.00 0.00 0.00 0.00 0.00 0.00 0.00 0.00 0.00 0.00
0.00 0.00 0.00 0.00 0.00 0.00 0.01 0.01 0.01 0.01 0.01 0.01 0.01 0.01 0.01 0.01 0.01 0.00 0.01 0.01 0.01 0.01 0.02 0.03 0.03 0.03 0.02 0.01 0.00 0.00 0.00 0.01 0.00 0.00 0.00 0.00 0.00 0.00 0.00 0.00 0.00 0.00 0.00
0.00 0.00 0.00 0.00 0.00 0.00 0.01 0.01 0.01 0.01 0.01 0.01 0.01 0.01 0.00 0.00 0.00 0.00 0.00 0.00 0.00 0.00 0.01 0.02 0.02 0.03 0.03 0.02 0.01 0.01 0.01 0.01 0.01 0.00 0.00 0.00 0.00 0.00 0.00 0.00 0.00 0.00 0.00
0.00 0.00 0.00 0.00 0.00 0.00 0.00 0.00 0.01 0.00 0.01 0.01 0.00 0.00 0.00 0.00 0.00 0.00 0.00 0.00 0.00 0.00 0.00 0.00 0.01 0.02 0.02 0.03 0.02 0.02 0.02 0.02 0.01 0.01 0.01 0.01 0.00 0.00 0.00 0.00 0.00 0.00 0.00
0.00 0.00 0.01 0.00 0.00 0.00 0.00 0.00 0.00 0.00 0.00 0.00 0.00 0.00 0.00 0.00 0.00 0.00 0.00 0.00 0.00 0.00 0.00 0.00 0.01 0.01 0.01 0.02 0.02 0.02 0.03 0.03 0.02 0.01 0.01 0.01 0.01 0.01 0.00 0.00 0.00 0.00 0.00
0.01 0.01 0.01 0.00 0.00 0.00 0.00 0.00 0.00 0.00 0.00 0.00 0.00 0.00 0.00 0.00 0.00 0.00 0.00 0.01 0.01 0.00 0.00 0.00 0.01 0.01 0.02 0.02 0.02 0.02 0.02 0.03 0.03 0.02 0.01 0.01 0.01 0.01 0.01 0.00 0.00 0.00 0.00
MSLP
1019.18 1019.43 1019.65 1019.83 1019.98 1020.09 1020.15 1020.18 1020.19 1020.16 1020.13 1020.11 1020.09 1020.08 1020.09 1020.11 1020.13 1020.13 1020.08 1019.99 1019.85 1019.65 1019.43 1019.19 1018.99 1018.83 1018.76 1018.76 1018.85 1019.00 1019.19 1019.39 1019.58 1019.74 1019.87 1019.95 1020.01 1020.03 1020.05 1020.04 1020.01 1019.97 1019.90
1019.19 1019.45 1019.69 1019.90 1020.07 1020.21 1020.30 1020.36 1020.39 1020.39 1020.38 1020.37 1020.37 1020.38 1020.42 1020.46 1020.51 1020.54 1020.54 1020.48 1020.37 1020.21 1020.01 1019.79 1019.59 1019.43 1019.34 1019.32 1019.39 1019.51 1019.68 1019.86 1020.04 1020.19 1020.31 1020.40 1020.45 1020.47 1020.48 1020.47 1020.44 1020.39 1020.33
1019.23 1019.50 1019.75 1019.98 1020.17 1020.33 1020.45 1020.53 1020.57 1020.60 1020.61 1020.61 1020.63 1020.66 1020.71 1020.77 1020.84 1020.89 1020.92 1020.91 1020.84 1020.72 1020.56 1020.37 1020.19 1020.04 1019.94 1019.91 1019.94 1020.02 1020.15 1020.30 1020.44 1020.57 1020.67 1020.74 1020.79 1020.80 1020.80 1020.79 1020.76 1020.72 1020.67
1019.30 1019.58 1019.84 1020.07 1020.28 1020.44 1020.57 1020.67 1020.73 1020.77 1020.79 1020.80 1020.83 1020.86 1020.92 1020.99 1021.07 1021.14 1021.20 1021.22 1021.19 1021.12 1021.01 1020.88 1020.73 1020.61 1020.51 1020.46 1020.47 1020.51 1020.59 1020.68 1020.78 1020.86 1020.92 1020.96 1020.98 1020.98 1020.97 1020.95 1020.93 1020.90 1020.86
1019.39 1019.67 1019.94 1020.18 1020.38 1020.54 1020.67 1020.77 1020.83 1020.87 1020.90 1020.92 1020.95 1020.98 1021.03 1021.10 1021.18 1021.26 1021.33 1021.39 1021.41 1021.39 1021.34 1021.26 1021.17 1021.08 1021.01 1020.96 1020.93 1020.94 1020.96 1020.99 1021.02 1021.04 1021.04 1021.03 1021.01 1020.99 1020.96 1020.94 1020.92 1020.90 1020.87
1019.47 1019.77 1020.03 1020.26 1020.46 1020.61 1020.73 1020.82 1020.88 1020.92 1020.95 1020.97 1020.99 1021.02 1021.06 1021.12 1021.19 1021.27 1021.35 1021.42 1021.48 1021.52 1021.53 1021.51 1021.48 1021.44 1021.40 1021.36 1021.32 1021.29 1021.26 1021.23 1021.18 1021.13 1021.06 1020.99 1020.92 1020.86 1020.80 1020.77 1020.74 1020.72 1020.71
1019.53 1019.83 1020.10 1020.32 1020.50 1020.65 1020.75 1020.83 1020.89 1020.92 1020.95 1020.97 1020.99 1021.01 1021.04 1021.08 1021.13 1021.20 1021.28 1021.36 1021.44 1021.52 1021.58 1021.63 1021.67 1021.68 1021.67 1021.66 1021.62 1021.57 1021.50 1021.40 1021.29 1021.16 1021.02 1020.88 1020.75 1020.64 1020.55 1020.49 1020.45 1020.42 1020.41
1019.54 1019.85 1020.13 1020.35 1020.53 1020.66 1020.76 1020.83 1020.88 1020.92 1020.95 1020.98 1020.99 1021.01 1021.02 1021.05 1021.08 1021.12 1021.18 1021.26 1021.35 1021.45 1021.55 1021.65 1021.74 1021.80 1021.84 1021.86 1021.84 1021.78 1021.68 1021.55 1021.38 1021.18 1020.98 1020.77 1020.58 1020.41 1020.28 1020.18 1020.11 1020.08 1020.06
1019.50 1019.84 1020.12 1020.35 1020.53 1020.66 1020.75 1020.83 1020.89 1020.94 1020.99 1021.02 1021.05 1021.07 1021.07 1021.08 1021.08 1021.10 1021.13 1021.18 1021.26 1021.36 1021.48 1021.60 1021.72 1021.83 1021.92 1021.97 1021.97 1021.93 1021.82 1021.67 1021.46 1021.23 1020.97 1020.71 1020.46 1020.24 1020.06 1019.92 1019.82 1019.76 1019.72
1019.42 1019.79 1020.09 1020.33 1020.52 1020.66 1020.77 1020.86 1020.94 1021.01 1021.08 1021.14 1021.19 1021.22 1021.22 1021.21 1021.19 1021.17 1021.17 1021.18 1021.22 1021.30 1021.40 1021.53 1021.67 1021.80 1021.92 1022.00 1022.04 1022.02 1021.93 1021.77 1021.56 1021.30 1021.01 1020.71 1020.42 1020.16 1019.93 1019.75 1019.61 1019.51 1019.45
1019.32 1019.71 1020.03 1020.29 1020.50 1020.66 1020.79 1020.90 1021.01 1021.12 1021.23 1021.32 1021.40 1021.45 1021.47 1021.45 1021.41 1021.36 1021.31 1021.27 1021.27 1021.29 1021.36 1021.47 1021.59 1021.74 1021.87 1021.98 1022.04 1022.05 1021.99 1021.86 1021.66 1021.40 1021.10 1020.79 1020.47 1020.17 1019.91 1019.68 1019.50 1019.36 1019.26
1019.19 1019.61 1019.95 1020.24 1020.46 1020.65 1020.80 1020.95 1021.09 1021.24 1021.39 1021.53 1021.65 1021.73 1021.77 1021.76 1021.71 1021.63 1021.54 1021.46 1021.39 1021.36 1021.38 1021.44 1021.53 1021.66 1021.79 1021.91 1022.00 1022.03 1022.00 1021.90 1021.73 1021.49 1021.20 1020.88 1020.55 1020.23 1019.94 1019.68 1019.46 1019.27 1019.12
1019.05 1019.48 1019.85 1020.15 1020.39 1020.60 1020.79 1020.96 1021.15 1021.34 1021.53 1021.72 1021.88 1022.00 1022.07 1022.08 1022.03 1021.95 1021.83 1021.70 1021.59 1021.50 1021.45 1021.45 1021.50 1021.59 1021.70 1021.81 1021.90 1021.95 1021.95 1021.88 1021.73 1021.52 1021.25 1020.94 1020.61 1020.27 1019.96 1019.67 1019.42 1019.19 1019.00
1018.89 1019.33 1019.70 1020.02 1020.28 1020.51 1020.72 1020.92 1021.14 1021.37 1021.60 1021.83 1022.03 1022.20 1022.31 1022.35 1022.33 1022.25 1022.12 1021.97 1021.82 1021.68 1021.58 1021.52 1021.51 1021.54 1021.61 1021.69 1021.77 1021.82 1021.83 1021.78 1021.65 1021.46 1021.20 1020.90 1020.57 1020.23 1019.90 1019.60 1019.32 1019.06 1018.83
1018.71 1019.14 1019.52 1019.84 1020.12 1020.36 1020.59 1020.82 1021.06 1021.31 1021.58 1021.84 1022.08 1022.29 1022.44 1022.53 1022.54 1022.49 1022.38 1022.23 1022.06 1021.88 1021.74 1021.62 1021.55 1021.52 1021.54 1021.57 1021.62 1021.65 1021.64 1021.59 1021.46 1021.27 1021.03 1020.73 1020.40 1020.05 1019.71 1019.39 1019.10 1018.83 1018.58
1018.50 1018.93 1019.31 1019.63 1019.91 1020.17 1020.41 1020.65 1020.91 1021.18 1021.47 1021.75 1022.03 1022.27 1022.46 1022.58 1022.64 1022.63 1022.55 1022.42 1022.26 1022.08 1021.90 1021.74 1021.61 1021.53 1021.48 1021.46 1021.45 1021.43 1021.39 1021.31 1021.17 1020.97 1020.71 1020.40 1020.06 1019.71 1019.36 1019.03 1018.73 1018.46 1018.21
1018.30 1018.71 1019.08 1019.41 1019.70 1019.96 1020.22 1020.47 1020.74 1021.02 1021.31 1021.60 1021.88 1022.15 1022.36 1022.53 1022.63 1022.66 1022.63 1022.54 1022.39 1022.22 1022.03 1021.84 1021.67 1021.53 1021.42 1021.33 1021.26 1021.19 1021.10 1020.97 1020.79 1020.56 1020.27 1019.94 1019.58 1019.21 1018.85 1018.51 1018.21 1017.95 1017.71
1018.10 1018.51 1018.88 1019.21 1019.51 1019.79 1020.06 1020.32 1020.59 1020.86 1021.15 1021.43 1021.71 1021.97 1022.20 1022.39 1022.52 1022.60 1022.60 1022.55 1022.44 1022.28 1022.10 1021.90 1021.70 1021.51 1021.34 1021.19 1021.06 1020.92 1020.77 1020.58 1020.35 1020.08 1019.75 1019.38 1018.99 1018.59 1018.22 1017.87 1017.58 1017.32 1017.11
1017.95 1018.34 1018.72 1019.06 1019.38 1019.68 1019.96 1020.23 1020.49 1020.76 1021.02 1021.28 1021.54 1021.78 1022.00 1022.19 1022.34 1022.44 1022.48 1022.46 1022.38 1022.24 1022.07 1021.86 1021.64 1021.42 1021.20 1021.00 1020.81 1020.62 1020.41 1020.17 1019.89 1019.57 1019.19 1018.78 1018.35 1017.93 1017.53 1017.17 1016.86 1016.61 1016.41
1017.83 1018.23 1018.61 1018.97 1019.31 1019.63 1019.93 1020.21 1020.47 1020.72 1020.95 1021.18 1021.39 1021.60 1021.79 1021.95 1022.10 1022.19 1022.25 1022.25 1022.19 1022.07 1021.90 1021.70 1021.47 1021.22 1020.98 1020.74 1020.51 1020.27 1020.02 1019.75 1019.43 1019.07 1018.65 1018.21 1017.74 1017.27 1016.83 1016.45 1016.12 1015.86 1015.66
1017.77 1018.17 1018.56 1018.94 1019.30 1019.64 1019.95 1020.24 1020.50 1020.73 1020.93 1021.11 1021.27 1021.42 1021.56 1021.69 1021.80 1021.88 1021.92 1021.92 1021.87 1021.76 1021.60 1021.39 1021.16 1020.90 1020.64 1020.39 1020.14 1019.88 1019.61 1019.32 1018.99 1018.60 1018.16 1017.69 1017.18 1016.68 1016.19 1015.76 1015.39 1015.10 1014.87
1017.73 1018.14 1018.54 1018.93 1019.31 1019.67 1019.99 1020.28 1020.53 1020.74 1020.91 1021.04 1021.15 1021.24 1021.32 1021.39 1021.46 1021.50 1021.52 1021.50 1021.43 1021.32 1021.15 1020.95 1020.71 1020.46 1020.20 1019.94 1019.69 1019.44 1019.18 1018.90 1018.57 1018.18 1017.74 1017.25 1016.71 1016.17 1015.63 1015.14 1014.71 1014.35 1014.06
1017.70 1018.10 1018.50 1018.91 1019.30 1019.66 1019.99 1020.28 1020.52 1020.70 1020.83 1020.92 1020.98 1021.01 1021.03 1021.05 1021.06 1021.06 1021.04 1020.99 1020.90 1020.77 1020.60 1020.39 1020.16 1019.91 1019.66 1019.42 1019.19 1018.96 1018.73 1018.47 1018.17 1017.81 1017.38 1016.88 1016.33 1015.75 1015.16 1014.60 1014.08 1013.63 1013.25
1017.64 1018.03 1018.43 1018.83 1019.22 1019.59 1019.91 1020.19 1020.41 1020.57 1020.67 1020.72 1020.73 1020.72 1020.69 1020.65 1020.61 1020.57 1020.51 1020.43 1020.31 1020.16 1019.98 1019.77 1019.53 1019.29 1019.06 1018.84 1018.64 1018.45 1018.26 1018.05 1017.79 1017.47 1017.07 1016.58 1016.02 1015.41 1014.77 1014.13 1013.52 1012.97 1012.48
1017.53 1017.92 1018.31 1018.69 1019.07 1019.42 1019.73 1019.99 1020.19 1020.33 1020.40 1020.42 1020.40 1020.35 1020.28 1020.20 1020.13 1020.04 1019.95 1019.84 1019.71 1019.54 1019.34 1019.12 1018.89 1018.66 1018.44 1018.25 1018.08 1017.93 1017.78 1017.62 1017.41 1017.13 1016.76 1016.29 1015.74 1015.10 1014.42 1013.71 1013.02 1012.36 1011.77
1017.37 1017.75 1018.13 1018.50 1018.85 1019.17 1019.45 1019.69 1019.86 1019.98 1020.03 1020.03 1019.98 1019.91 1019.82 1019.72 1019.62 1019.51 1019.39 1019.26 1019.11 1018.93 1018.72 1018.50 1018.27 1018.04 1017.83 1017.66 1017.51 1017.39 1017.29 1017.16 1016.99 1016.75 1016.42 1015.98 1015.43 1014.78 1014.07 1013.31 1012.55 1011.81 1011.13
Thickness
5660 5662 5662 5661 5661 5661 5661 5661 5661 5660 5659 5658 5657 5656 5655 5654 5653 5651 5649 5647 5647 5647 5647 5647 5647 5646 5645 5644 5643 5642 5641 5640 5639 5638 5637 5636 5635 5635 5634 5634 5634 5634 5634
5654 5655 5656 5655 5655 5656 5655 5655 5655 5654 5653 5652 5651 5649 5648 5647 5646 5644 5642 5640 5639 5639 5639 5639 5638 5638 5637 5636 5635 5634 5633 5632 5631 5630 5629 5628 5627 5627 5626 5626 5626 5625 5625
5647 5648 5649 5649 5649 5649 5649 5649 5648 5647 5646 5645 5644 5642 5641 5640 5638 5637 5635 5633 5632 5630 5630 5629 5629 5628 5628 5627 5626 5625 5624 5623 5622 5621 5621 5620 5619 5619 5618 5618 5617 5617 5617
5639 5640 5641 5642 5642 5642 5642 5642 5642 5641 5640 5639 5637 5635 5634 5632 5631 5629 5627 5625 5624 5622 5621 5619 5619 5619 5618 5618 5617 5616 5615 5614 5613 5613 5612 5611 5611 5610 5610 5609 5609 5609 5608
5631 5633 5633 5634 5634 5635 5635 5636 5635 5635 5633 5631 5630 5627 5626 5624 5622 5620 5619 5616 5615 5613 5612 5610 5609 5609 5608 5608 5608 5607 5606 5605 5604 5604 5603 5602 5602 5601 5601 5601 5600 5600 5600
5624 5625 5626 5626 5626 5627 5628 5628 5627 5626 5625 5623 5621 5619 5617 5615 5613 5612 5611 5608 5606 5604 5603 5602 5601 5600 5598 5598 5597 5597 5596 5596 5595 5594 5594 5593 5593 5592 5592 5592 5591 5591 5591
5616 5618 5618 5618 5618 5619 5620 5620 5619 5618 5616 5614 5614 5612 5609 5607 5605 5603 5602 5601 5598 5596 5595 5594 5592 5591 5590 5588 5587 5586 5586 5586 5585 5584 5584 5584 5583 5583 5582 5582 5582 5582 5582
5608 5609 5611 5611 5610 5610 5611 5611 5611 5610 5608 5606 5608 5608 5606 5602 5598 5595 5593 5591 5590 5588 5586 5585 5583 5581 5580 5579 5577 5576 5575 5575 5575 5574 5574 5574 5573 5573 5573 5573 5573 5573 5572
5600 5601 5603 5604 5603 5603 5603 5602 5602 5602 5601 5598 5597 5599 5601 5602 5595 5589 5585 5583 5581 5579 5578 5575 5574 5572 5570 5569 5568 5566 5565 5564 5564 5564 5564 5564 5563 5563 5563 5563 5563 5563 5562
5593 5594 5594 5595 5595 5595 5594 5593 5593 5593 5593 5591 5587 5586 5587 5589 5588 5585 5579 5575 5572 5571 5569 5567 5565 5562 5560 5559 5557 5555 5554 5553 5553 5553 5553 5553 5553 5552 5552 5552 5552 5552 5551
5585 5586 5585 5586 5586 5586 5586 5584 5584 5583 5582 5582 5580 5577 5576 5575 5576 5577 5575 5570 5565 5562 5559 5557 5555 5553 5550 5548 5547 5545 5543 5542 5542 5541 5541 5541 5541 5541 5540 5540 5540 5539 5539
5578 5578 5577 5577 5577 5577 5576 5575 5574 5573 5572 5571 5569 5567 5567 5566 5566 5565 5565 5562 5558 5554 5549 5547 5545 5542 5540 5538 5535 5533 5531 5530 5530 5529 5529 5529 5528 5528 5527 5527 5527 5526 5526
5572 5571 5570 5569 5568 5567 5566 5565 5565 5563 5561 5560 5559 5557 5555 5553 5552 5551 5550 5549 5546 5543 5540 5537 5534 5531 5529 5526 5524 5521 5520 5519 5517 5517 5516 5516 5515 5514 5513 5513 5512 5512 5512
5566 5564 5562 5560 5559 5558 5556 5555 5554 5552 5551 5550 5548 5546 5543 5541 5539 5537 5537 5536 5535 5534 5532 5530 5524 5521 5517 5515 5512 5510 5509 5507 5505 5504 5503 5502 5501 5500 5499 5498 5498 5497 5497
5557 5556 5553 5552 5550 5548 5547 5545 5544 5542 5541 5539 5537 5534 5532 5530 5527 5525 5523 5523 5523 5525 5525 5520 5514 5510 5505 5502 5500 5498 5497 5495 5493 5491 5490 5488 5487 5485 5484 5483 5483 5482 5481
5549 5547 5545 5544 5542 5539 5537 5535 5534 5532 5530 5528 5525 5524 5521 5518 5516 5513 5511 5510 5508 5508 5510 5508 5502 5498 5493 5489 5487 5485 5484 5482 5480 5478 5476 5474 5473 5471 5470 5469 5468 5467 5466
5541 5539 5536 5534 5533 5530 5528 5526 5523 5521 5519 5517 5514 5512 5510 5507 5504 5502 5499 5497 5495 5493 5493 5493 5488 5484 5480 5477 5475 5472 5470 5469 5467 5465 5462 5460 5458 5457 5455 5454 5452 5450 5449
5532 5529 5527 5525 5523 5521 5518 5516 5514 5512 5509 5507 5504 5501 5498 5495 5493 5491 5488 5485 5483 5480 5478 5478 5475 5471 5467 5464 5461 5459 5457 5454 5453 5450 5448 5445 5444 5441 5440 5438 5436 5434 5432
5522 5519 5518 5516 5514 5511 5508 5506 5504 5501 5499 5496 5494 5490 5488 5485 5483 5480 5476 5473 5470 5467 5464 5462 5462 5457 5454 5450 5447 5446 5443 5440 5438 5435 5432 5430 5428 5425 5423 5421 5419 5416 5414
5512 5510 5508 5506 5504 5501 5498 5495 5493 5490 5488 5485 5482 5479 5476 5474 5472 5469 5465 5461 5458 5454 5451 5448 5447 5444 5441 5437 5433 5432 5431 5427 5425 5421 5417 5415 5412 5409 5407 5405 5402 5399 5397
5503 5500 5498 5496 5493 5491 5489 5485 5482 5479 5477 5474 5471 5467 5464 5462 5459 5455 5452 5449 5445 5442 5438 5435 5434 5431 5428 5424 5421 5417 5415 5413 5411 5405 5403 5401 5397 5395 5391 5389 5385 5382 5379
5492 5490 5488 5486 5484 5481 5477 5474 5471 5469 5466 5463 5460 5457 5453 5449 5445 5442 5439 5435 5432 5429 5427 5423 5421 5419 5416 5411 5407 5402 5398 5397 5397 5393 5386 5386 5380 5379 5376 5373 5370 5366 5363
5482 5480 5478 5476 5474 5471 5466 5463 5459 5457 5455 5452 5449 5446 5443 5439 5434 5431 5428 5423 5420 5416 5412 5410 5408 5406 5402 5398 5393 5389 5385 5382 5380 5375 5369 5371 5367 5365 5362 5359 5354 5351 5348
5473 5470 5468 5465 5463 5460 5455 5452 5448 5446 5444 5441 5438 5435 5432 5429 5424 5420 5417 5414 5411 5407 5402 5398 5396 5393 5388 5383 5378 5374 5371 5367 5365 5360 5354 5354 5354 5351 5349 5345 5342 5338 5335
5462 5459 5456 5454 5452 5450 5445 5441 5437 5436 5433 5431 5428 5424 5421 5418 5413 5408 5405 5403 5401 5397 5391 5387 5383 5379 5375 5370 5364 5359 5355 5351 5351 5350 5342 5338 5339 5337 5336 5333 5329 5325 5322
5450 5447 5444 5442 5441 5439 5435 5430 5426 5425 5423 5421 5418 5413 5409 5405 5401 5396 5393 5392 5390 5387 5381 5377 5373 5369 5364 5359 5353 5347 5342 5338 5336 5336 5333 5325 5323 5320 5322 5323 5317 5313 5310